Location: Ferintosh
(52.7647°N, 112.9692°W)
Time: 18:02:20
(UTC+00:00)

A-11 Canister half - Pass Details

Date: 30 May 2024
Orbit: 1515 x 1685 km, 47.2° (Epoch: 12 June)

Event Time Altitude Azimuth Distance (km) Brightness Sun altitude
Rises 10:01:56 0° 257° (WSW) 4,784 11.1 -8.4°
Reaches altitude 10° 10:05:06 10° 255° (WSW) 3,777 10.6 -8.1°
Maximum altitude 10:14:26 63° 177° (S) 1,688 9.1 -7.2°
Drops below altitude 10° 10:23:32 10° 99° (E) 3,682 11.4 -6.4°
Sets 10:26:34 0° 97° (E) 4,658 12.1 -6.1°
